Naples Weather Center

Moon Phase Calendar



Online Cameras

 


      

Current Conditions in Naples
10/17/2021 8:38:42 PM

81°F
Feels Like 86
Clear
Humidity
78%
Pressure
29.97"
Wind
8 mph (NW)
Dew Point
74°F
UV Index
0/10 (Low)
Visibility
6 mi

Hourly Forecast

Date & Time Sun, Oct 17
8:00 PM
Sun, Oct 17
9:00 PM
Sun, Oct 17
10:00 PM
Sun, Oct 17
11:00 PM
Mon, Oct 18
12:00 AM
Mon, Oct 18
1:00 AM
Mon, Oct 18
2:00 AM
Mon, Oct 18
3:00 AM
Mon, Oct 18
4:00 AM
Mon, Oct 18
5:00 AM
Mon, Oct 18
6:00 AM
Mon, Oct 18
7:00 AM
Mon, Oct 18
8:00 AM
Mon, Oct 18
9:00 AM
Mon, Oct 18
10:00 AM
Mon, Oct 18
11:00 AM
Mon, Oct 18
12:00 PM
Mon, Oct 18
1:00 PM
Mon, Oct 18
2:00 PM
Mon, Oct 18
3:00 PM
Mon, Oct 18
4:00 PM
Mon, Oct 18
5:00 PM
Mon, Oct 18
6:00 PM
Mon, Oct 18
7:00 PM
Mon, Oct 18
8:00 PM
Mon, Oct 18
9:00 PM
Mon, Oct 18
10:00 PM
Mon, Oct 18
11:00 PM
Tue, Oct 19
12:00 AM
Tue, Oct 19
1:00 AM
Tue, Oct 19
2:00 AM
Tue, Oct 19
3:00 AM
Tue, Oct 19
4:00 AM
Tue, Oct 19
5:00 AM
Tue, Oct 19
6:00 AM
Tue, Oct 19
7:00 AM
Tue, Oct 19
8:00 AM
Tue, Oct 19
9:00 AM
Tue, Oct 19
10:00 AM
Tue, Oct 19
11:00 AM
Tue, Oct 19
12:00 PM
Tue, Oct 19
1:00 PM
Tue, Oct 19
2:00 PM
Tue, Oct 19
3:00 PM
Tue, Oct 19
4:00 PM
Tue, Oct 19
5:00 PM
Tue, Oct 19
6:00 PM
Tue, Oct 19
7:00 PM
Condition
Rain

Clear

Clear

Clear

Clear

Clear

Clear

Clear

Clear

Clear

Clear

Clouds

Clouds

Clouds

Clouds

Clouds

Clouds

Clouds

Clouds

Clouds

Clouds

Clouds

Clouds

Clouds

Clouds

Clouds

Clouds

Clouds

Clouds

Clouds

Clouds

Clouds

Clouds

Clouds

Clouds

Clouds

Clouds

Clouds

Clouds

Clouds

Clouds

Clouds

Clouds

Clear

Clear

Clouds

Clouds

Clouds
Temperature 81°F81°F81°F80°F78°F76°F73°F72°F71°F71°F71°F70°F70°F72°F75°F78°F80°F82°F83°F84°F84°F84°F82°F79°F77°F76°F75°F74°F74°F73°F73°F72°F72°F72°F71°F71°F71°F73°F76°F79°F81°F82°F83°F84°F84°F82°F80°F78°F
Feels Like 86°F87°F85°F80°F79°F77°F74°F73°F72°F71°F71°F70°F70°F72°F76°F78°F81°F82°F83°F84°F84°F84°F83°F79°F77°F76°F75°F74°F74°F73°F73°F72°F72°F72°F71°F71°F71°F73°F76°F79°F82°F83°F84°F85°F85°F83°F82°F78°F
Cloudiness 11%1%4%5%6%7%7%6%5%4%5%12%14%41%34%37%42%53%60%75%81%72%68%72%75%64%70%80%85%88%90%100%100%100%100%100%97%94%97%93%79%64%54%8%10%20%25%37%
Visibility 6 mi6 mi6 mi6 mi6 mi6 mi6 mi6 mi6 mi6 mi6 mi6 mi6 mi6 mi6 mi6 mi6 mi6 mi6 mi6 mi6 mi6 mi6 mi6 mi6 mi6 mi6 mi6 mi6 mi6 mi6 mi6 mi6 mi6 mi6 mi6 mi6 mi6 mi6 mi6 mi6 mi6 mi6 mi6 mi6 mi6 mi6 mi6 mi
Precipitation 32%25%25%27%23%19%19%0%0%0%0%0%0%0%0%0%0%0%0%0%0%0%0%0%0%0%0%0%0%0%0%0%0%0%0%0%0%0%0%0%0%0%0%0%0%0%0%0%
Humidity 77%79%77%77%76%74%73%73%73%74%74%74%75%70%63%55%50%46%43%42%42%44%49%54%58%60%62%63%64%65%66%66%66%67%68%68%70%67%61%55%50%47%46%48%50%54%56%61%
Dew Point 73°F74°F73°F72°F70°F67°F64°F63°F63°F62°F62°F62°F62°F62°F62°F61°F60°F59°F58°F58°F59°F60°F61°F61°F62°F61°F61°F61°F61°F61°F61°F60°F60°F60°F60°F60°F61°F62°F62°F61°F61°F61°F61°F62°F63°F63°F63°F63°F
Pressure 29.97"29.97"29.97"29.97"30"30"30"30"30"30"30"30"30.03"30.03"30.06"30.06"30.06"30.03"30"29.97"29.97"29.97"29.97"30"30.03"30.03"30.06"30.06"30.06"30.06"30.06"30.06"30.06"30.06"30.06"30.09"30.09"30.12"30.12"30.12"30.09"30.09"30.06"30.03"30.03"30.03"30.06"30.06"
Wind Speed 8.3 mph8 mph11.4 mph13.8 mph15 mph15 mph14.8 mph14.9 mph15.2 mph15.6 mph15.1 mph14.9 mph14.6 mph15.7 mph16.9 mph15.9 mph14.5 mph13 mph11.6 mph10.7 mph11.1 mph12.8 mph15.2 mph17.3 mph18.8 mph18.1 mph17.3 mph16 mph14.4 mph12.7 mph12.2 mph11.7 mph11.9 mph12.3 mph12.1 mph12.3 mph12.1 mph12.8 mph14.3 mph15.7 mph15.5 mph15 mph14.3 mph14.4 mph16.4 mph19.1 mph18.2 mph17.6 mph
Wind
Direction
354°
N
18°
NNE
37°
NE
51°
NE
48°
NE
49°
NE
43°
NE
41°
NE
40°
NE
43°
NE
44°
NE
47°
NE
49°
NE
53°
NE
60°
ENE
63°
ENE
62°
ENE
61°
ENE
56°
NE
50°
NE
44°
NE
44°
NE
45°
NE
43°
NE
51°
NE
58°
ENE
64°
ENE
67°
ENE
69°
ENE
68°
ENE
65°
ENE
62°
ENE
59°
ENE
56°
NE
59°
ENE
58°
ENE
55°
NE
56°
NE
65°
ENE
73°
ENE
77°
ENE
79°
E
77°
ENE
73°
ENE
68°
ENE
65°
ENE
63°
ENE
60°
ENE

Daily Forecast

Date High Low Precip. Humidity
Today
Oct 17

Rain
84 °F
77 °F
52%
60%
Monday
Oct 18

Clouds
84 °F
70 °F
23%
46%
Tuesday
Oct 19

Clouds
83 °F
71 °F
0%
47%
Wednesday
Oct 20

Clouds
85 °F
76 °F
0%
49%
Thursday
Oct 21

Rain
83 °F
76 °F
100%
65%
Friday
Oct 22

Rain
82 °F
75 °F
100%
66%
Saturday
Oct 23

Rain
85 °F
74 °F
49%
59%
Sunday
Oct 24

Rain
84 °F
76 °F
95%
64%
Monday
Oct 25

Rain
76 °F
73 °F
100%
86%
Tuesday
Oct 26

Rain
73 °F
70 °F
100%
93%
Wednesday
Oct 27

Clouds
81 °F
71 °F
58%
55%
Thursday
Oct 28

Clouds
82 °F
71 °F
0%
50%
Friday
Oct 29

Rain
81 °F
75 °F
39%
64%
Saturday
Oct 30

Rain
76 °F
70 °F
43%
52%
Sunday
Oct 31

Clouds
73 °F
63 °F
0%
49%
Monday
Nov 1

Clouds
73 °F
66 °F
12%
59%

Temperature 8-14 Day Outlook



Precipitation 8-14 Day Outlook




Quick Links
Naples News
Naples Photos
Naples Videos




About Us
Contact Us
Site Map
Search Site
Advertise With Us
   
Naples.USGulf.info
THE NAPLES WEBSITE

Copyright 2021, Coastal Town
Privacy    |    Legal